sat.trackr.live / text

‹ back to catalog

STARLINK-3776

NORAD 52288 · 2022-041AD

PAYLOAD ACTIVE UNKNOWN

§ Identity

Operator
Country
US
Launch date
2022-04-21
Launch site
AFETR
Launch vehicle
Mass (kg)
RCS (m²)

Purposes: comms

External: N2YO · Heavens-Above · Gunter

§ Orbital elements

Epoch: 2026-05-25T04:55:47.229600Z

Period
95.44 min
Inclination
53.2144°
Eccentricity
0.0001564
Mean motion
15.08849235 rev/d
Perigee alt
538.6 km
Apogee alt
540.8 km
Semi-major
6,917.9 km
B*
7.0614e-5
RAAN
115.6297°
Arg perigee
80.0582°
Mean anomaly
280.0587°
Rev number
22,605

§ Raw data

STARLINK-37761 52288U 22041AD  26145.20540775  .00000836  00000+0  70614-4 0  99902 52288  53.2144 115.6297 0001564  80.0582 280.0587 15.08849235226056

JSON: /api/v1/satellites/52288 · /tle

For live sub-satellite position, see the globe view (requires WebGL).

§ Visibility from observer

Set your observer location to see the next 7 days of passes ≥ 10°. The values pass through the URL so the page stays shareable.

No JS? Fill the form by hand. The geolocation button needs JavaScript.